| time (UTC) | temp C | wind direction | speed KPH | gust KPH | rain 1hr cm | rain 24hr cm | rain mn cm | humidity % | barometer mb |
| 20260510091418 | 12 | 333 | 8.0 | 12.9 | 0.00 | 0.00 | 4.27 | 40 | 1012.3 |
| 20260510085619 | 13 | 322 | 6.4 | 12.9 | 0.00 | 0.00 | 4.27 | 40 | 1012.7 |
| 20260510084718 | 13 | 334 | 8.0 | 12.9 | 0.00 | 0.00 | 4.27 | 40 | 1012.7 |
| 20260510083819 | 13 | 335 | 6.4 | 11.3 | 0.00 | 0.00 | 4.27 | 40 | 1012.7 |
| 20260510082019 | 13 | 332 | 4.8 | 12.9 | 0.00 | 0.00 | 4.27 | 40 | 1012.9 |
| 20260510073518 | 13 | 321 | 3.2 | 8.0 | 0.00 | 0.00 | 4.27 | 40 | 1013.3 |
| 20260510071718 | 12 | 330 | 4.8 | 8.0 | 0.00 | 0.00 | 4.27 | 40 | 1013.2 |
| 20260510070818 | 12 | 316 | 4.8 | 6.4 | 0.00 | 0.00 | 4.27 | 43 | 1013.1 |
| 20260510065918 | 11 | 332 | 4.8 | 9.7 | 0.00 | 0.00 | 4.27 | 43 | 1013.1 |
| 20260510065018 | 11 | 345 | 4.8 | 8.0 | 0.00 | 0.00 | 4.27 | 42 | 1013.2 |
| 20260510064118 | 11 | 324 | 3.2 | 11.3 | 0.00 | 0.00 | 4.27 | 43 | 1013.2 |
| 20260510063219 | 12 | 17 | 3.2 | 6.4 | 0.00 | 0.00 | 4.27 | 44 | 1013.3 |
| 20260510062319 | 12 | 1 | 3.2 | 4.8 | 0.00 | 0.00 | 4.27 | 46 | 1013.1 |
| 20260509231956 | 7 | 1 | 9.7 | 17.7 | 0.00 | 0.00 | 0.00 | 51 | 1015.4 |
| 20260509231057 | 7 | 342 | 11.3 | 19.3 | 0.00 | 0.00 | 0.00 | 51 | 1015.4 |
| 20260509230156 | 7 | 6 | 11.3 | 19.3 | 0.00 | 0.00 | 0.00 | 51 | 1015.4 |
| 20260509225256 | 7 | 359 | 11.3 | 22.5 | 0.00 | 0.00 | 4.27 | 50 | 1015.4 |
| 20260509224356 | 7 | 1 | 9.7 | 22.5 | 0.00 | 0.00 | 4.27 | 50 | 1015.2 |
| 20260509223457 | 7 | 334 | 9.7 | 20.9 | 0.00 | 0.00 | 4.27 | 49 | 1015.3 |
| 20260509222556 | 7 | 321 | 9.7 | 19.3 | 0.00 | 0.00 | 4.27 | 48 | 1015.4 |
| 20260509221656 | 7 | 344 | 11.3 | 25.7 | 0.00 | 0.00 | 4.27 | 48 | 1015.4 |
| 20260509220757 | 7 | 350 | 11.3 | 25.7 | 0.00 | 0.00 | 4.27 | 49 | 1015.3 |
| 20260509215856 | 7 | 345 | 11.3 | 22.5 | 0.00 | 0.00 | 4.27 | 50 | 1015.1 |
| 20260509214957 | 7 | 339 | 12.9 | 20.9 | 0.00 | 0.00 | 4.27 | 50 | 1015.2 |
| 20260509214056 | 7 | 350 | 11.3 | 27.4 | 0.00 | 0.00 | 4.27 | 51 | 1015.2 |
| 20260509213157 | 7 | 4 | 9.7 | 27.4 | 0.00 | 0.00 | 4.27 | 52 | 1015.3 |
| 20260509212256 | 7 | 328 | 11.3 | 27.4 | 0.00 | 0.00 | 4.27 | 52 | 1015.2 |
| 20260509211356 | 7 | 351 | 11.3 | 17.7 | 0.00 | 0.00 | 4.27 | 52 | 1015.4 |
| 20260509210457 | 7 | 358 | 9.7 | 17.7 | 0.00 | 0.00 | 4.27 | 52 | 1015.5 |
| 20260509205557 | 7 | 335 | 11.3 | 20.9 | 0.00 | 0.00 | 4.27 | 52 | 1015.5 |
| 20260509204658 | 7 | 337 | 12.9 | 22.5 | 0.00 | 0.00 | 4.27 | 51 | 1015.4 |
| 20260509203757 | 7 | 333 | 12.9 | 22.5 | 0.00 | 0.00 | 4.27 | 51 | 1015.3 |
| 20260509202902 | 7 | 325 | 11.3 | 20.9 | 0.00 | 0.00 | 4.27 | 50 | 1015.2 |
| 20260509202001 | 7 | 329 | 11.3 | 24.1 | 0.00 | 0.00 | 4.27 | 50 | 1015.2 |
| 20260509201057 | 7 | 336 | 12.9 | 24.1 | 0.00 | 0.00 | 4.27 | 51 | 1015.4 |
| 20260509200157 | 8 | 333 | 16.1 | 27.4 | 0.00 | 0.00 | 4.27 | 51 | 1015.4 |
| 20260509195257 | 8 | 326 | 12.9 | 24.1 | 0.00 | 0.00 | 4.27 | 50 | 1015.3 |
| 20260509194357 | 8 | 340 | 11.3 | 19.3 | 0.00 | 0.00 | 4.27 | 48 | 1015.3 |
| 20260509193457 | 8 | 330 | 14.5 | 25.7 | 0.00 | 0.00 | 4.27 | 46 | 1015.0 |
| 20260509192557 | 9 | 338 | 11.3 | 22.5 | 0.00 | 0.00 | 4.27 | 45 | 1015.2 |
| 20260509191657 | 9 | 329 | 12.9 | 24.1 | 0.00 | 0.00 | 4.27 | 44 | 1014.8 |
| 20260509190757 | 9 | 343 | 14.5 | 37.0 | 0.00 | 0.00 | 4.27 | 43 | 1014.8 |
| 20260509185857 | 9 | 328 | 14.5 | 30.6 | 0.00 | 0.00 | 4.27 | 42 | 1014.8 |
| 20260509184957 | 9 | 342 | 17.7 | 32.2 | 0.00 | 0.00 | 4.27 | 42 | 1014.8 |
| 20260509184057 | 10 | 309 | 19.3 | 30.6 | 0.00 | 0.00 | 4.27 | 41 | 1014.6 |
| 20260509182257 | 10 | 342 | 17.7 | 30.6 | 0.00 | 0.00 | 4.27 | 41 | 1014.6 |
| 20260509181357 | 10 | 334 | 19.3 | 35.4 | 0.00 | 0.00 | 4.27 | 41 | 1014.5 |
| 20260509180457 | 10 | 335 | 20.9 | 35.4 | 0.00 | 0.00 | 4.27 | 41 | 1014.2 |
| 20260509174657 | 10 | 309 | 19.3 | 33.8 | 0.00 | 0.00 | 4.27 | 40 | 1014.2 |
| 20260509173757 | 10 | 312 | 20.9 | 37.0 | 0.00 | 0.00 | 4.27 | 40 | 1014.4 |
| 20260509172857 | 10 | 332 | 19.3 | 37.0 | 0.00 | 0.00 | 4.27 | 40 | 1014.5 |
| 20260509171957 | 10 | 342 | 20.9 | 29.0 | 0.00 | 0.00 | 4.27 | 40 | 1014.4 |
| 20260509171057 | 10 | 329 | 19.3 | 29.0 | 0.00 | 0.00 | 4.27 | 38 | 1014.5 |
| 20260509170157 | 10 | 324 | 19.3 | 37.0 | 0.00 | 0.00 | 4.27 | 37 | 1014.4 |
| 20260509165257 | 10 | 333 | 19.3 | 37.0 | 0.00 | 0.00 | 4.27 | 34 | 1014.3 |
| 20260509163457 | 11 | 344 | 20.9 | 33.8 | 0.00 | 0.00 | 4.27 | 34 | 1014.2 |
| 20260509162557 | 11 | 350 | 19.3 | 32.2 | 0.00 | 0.00 | 4.27 | 34 | 1014.3 |
| 20260509161658 | 11 | 343 | 20.9 | 35.4 | 0.00 | 0.00 | 4.27 | 34 | 1014.1 |
| 20260509155857 | 11 | 347 | 19.3 | 29.0 | 0.00 | 0.00 | 4.27 | 34 | 1014.4 |
| 20260509154957 | 11 | 351 | 20.9 | 29.0 | 0.00 | 0.00 | 4.27 | 34 | 1014.2 |
| 20260509154057 | 11 | 335 | 20.9 | 29.0 | 0.00 | 0.00 | 4.27 | 35 | 1014.0 |
| 20260509153157 | 11 | 332 | 20.9 | 30.6 | 0.00 | 0.00 | 4.27 | 35 | 1013.8 |
| 20260509152257 | 11 | 336 | 20.9 | 33.8 | 0.00 | 0.00 | 4.27 | 36 | 1014.0 |
| 20260509150457 | 11 | 335 | 17.7 | 33.8 | 0.00 | 0.00 | 4.27 | 38 | 1014.0 |
| 20260509145557 | 11 | 326 | 19.3 | 33.8 | 0.00 | 0.00 | 4.27 | 37 | 1014.5 |
| 20260509144657 | 11 | 327 | 17.7 | 33.8 | 0.00 | 0.00 | 4.27 | 38 | 1014.3 |
| 20260509143757 | 11 | 336 | 17.7 | 30.6 | 0.00 | 0.00 | 4.27 | 37 | 1014.2 |
| 20260509141957 | 11 | 344 | 17.7 | 33.8 | 0.00 | 0.00 | 4.27 | 40 | 1014.2 |
| 20260509140157 | 11 | 322 | 19.3 | 35.4 | 0.00 | 0.00 | 4.27 | 39 | 1014.1 |
| 20260509135257 | 11 | 333 | 19.3 | 32.2 | 0.00 | 0.00 | 4.27 | 40 | 1014.2 |
| 20260509134357 | 11 | 316 | 20.9 | 33.8 | 0.00 | 0.00 | 4.27 | 40 | 1014.1 |
| 20260509133457 | 11 | 330 | 19.3 | 33.8 | 0.00 | 0.00 | 4.27 | 40 | 1014.2 |
| 20260509132557 | 11 | 329 | 20.9 | 32.2 | 0.00 | 0.00 | 4.27 | 40 | 1014.3 |
| 20260509131657 | 11 | 333 | 19.3 | 27.4 | 0.00 | 0.00 | 4.27 | 39 | 1013.9 |
| 20260509130757 | 12 | 343 | 16.1 | 30.6 | 0.00 | 0.00 | 4.27 | 39 | 1014.3 |
| 20260509125857 | 11 | 344 | 19.3 | 30.6 | 0.00 | 0.00 | 4.27 | 40 | 1014.4 |
| 20260509124957 | 11 | 326 | 19.3 | 27.4 | 0.00 | 0.00 | 4.27 | 41 | 1014.3 |
| 20260509124057 | 11 | 319 | 17.7 | 29.0 | 0.00 | 0.00 | 4.27 | 41 | 1014.3 |
| 20260509123158 | 12 | 345 | 17.7 | 33.8 | 0.00 | 0.00 | 4.27 | 41 | 1014.3 |
| 20260509121357 | 11 | 329 | 20.9 | 33.8 | 0.00 | 0.00 | 4.27 | 40 | 1014.3 |
| 20260509115557 | 12 | 324 | 16.1 | 27.4 | 0.00 | 0.00 | 4.27 | 41 | 1014.2 |
| 20260509114657 | 11 | 324 | 17.7 | 25.7 | 0.00 | 0.00 | 4.27 | 41 | 1014.2 |
| 20260509113757 | 11 | 326 | 17.7 | 33.8 | 0.00 | 0.00 | 4.27 | 42 | 1014.2 |
| 20260509112857 | 11 | 331 | 17.7 | 30.6 | 0.00 | 0.00 | 4.27 | 42 | 1014.4 |
| 20260509111957 | 11 | 328 | 19.3 | 30.6 | 0.00 | 0.00 | 4.27 | 42 | 1014.4 |
| 20260509111057 | 11 | 339 | 17.7 | 27.4 | 0.00 | 0.00 | 4.27 | 41 | 1014.1 |
| 20260509110157 | 11 | 339 | 19.3 | 27.4 | 0.00 | 0.00 | 4.27 | 41 | 1014.1 |
| 20260509104357 | 12 | 343 | 16.1 | 27.4 | 0.00 | 0.00 | 4.27 | 41 | 1014.1 |
| 20260509103457 | 11 | 333 | 16.1 | 29.0 | 0.00 | 0.00 | 4.27 | 41 | 1014.0 |
| 20260509101657 | 12 | 348 | 14.5 | 24.1 | 0.00 | 0.00 | 4.27 | 41 | 1014.0 |
| 20260509100757 | 11 | 318 | 17.7 | 33.8 | 0.00 | 0.00 | 4.27 | 41 | 1013.9 |
| 20260509094957 | 11 | 332 | 14.5 | 24.1 | 0.00 | 0.00 | 4.27 | 40 | 1014.0 |
| 20260509094057 | 11 | 323 | 16.1 | 24.1 | 0.00 | 0.00 | 4.27 | 40 | 1013.9 |
| 20260509093157 | 12 | 328 | 12.9 | 22.5 | 0.00 | 0.00 | 4.27 | 40 | 1013.8 |
| 20260509092257 | 12 | 318 | 9.7 | 19.3 | 0.00 | 0.00 | 4.27 | 36 | 1013.6 |